• Join FlightAware (Why Join?)
  • Login
  • US Flag GB Flag 
03:34 EST


 

Airport Tracker/Info


-or-


 

Live Flight TrackerFlight Track Log ✈ XOJ793 ✈ 13-Jul-2014 ✈ KAEJ - KSBA

Flight Track Log - Related Links

Times and Time Zones

All times are in EDT time to prevent confusion due to time zone crossing. See the XOJ793 flight status page for this flight to view local times or setup timezone preferences in your user account.

Time Position Orientation Groundspeed Altitude Reporting Facility
EDT Latitude Longitude Course Direction KTS MPH feet Rate Location/Type
14:33 38.4835 -105.0629 111° Southeast  Level FlightAware Approximate
14:34 38.4372 -104.9126 111° Southeast  Level FlightAware Approximate
14:34 38.6456 -106.0411 243° Southwest 270 311 14,900  Level Denver Center
14:35 38.3927 -104.7615 113° Southeast  Level FlightAware Approximate
14:35 38.5725 -105.9956 154° Southeast 293 337 16,800  Level Denver Center
14:36 38.3519 -104.6094 104° East  Level FlightAware Approximate
14:36 38.4928 -105.9161 142° Southeast 302 348 18,600  Level Denver Center
14:37 38.3035 -104.4606 113° Southeast  Level FlightAware Approximate
14:38 38.2471 -104.5166 245° Southwest  Level FlightAware Approximate
14:38 38.4161 -105.9567 203° Southwest 318 366 20,000  Level Denver Center
14:39 38.1894 -104.6595 243° Southwest  Level FlightAware Approximate
14:39 38.3336 -106.0356 217° Southwest 374 430 20,000  Level Denver Center
14:40 38.1311 -104.8022 243° Southwest  Level FlightAware Approximate
14:40 38.2356 -106.1036 209° Southwest 396 456 22,400  Level Denver Center
14:41 38.1267 -106.1806 209° Southwest 395 455 24,700 1,740 Climbing Denver Center
14:42 38.0811 -106.3189 247° West 403 464 26,000 600 Climbing Denver Center
14:43 38.0314 -106.4578 246° West 430 495 26,000 900 Level Denver Center
14:44 37.9794 -106.6036 246° West 449 517 27,900 1,500 Climbing Denver Center
14:45 37.9281 -106.7375 244° Southwest 448 516 29,200 1,380 Climbing Denver Center
14:46 37.8681 -106.9008 245° Southwest 454 522 30,800 1,440 Climbing Denver Center
14:47 37.8150 -107.0417 245° Southwest 460 529 32,200 1,320 Climbing Denver Center
14:48 37.7522 -107.2092 245° Southwest 470 541 33,600 1,320 Climbing Denver Center
14:49 37.6969 -107.3542 244° Southwest 476 548 35,000 1,740 Climbing Denver Center
14:50 37.6350 -107.5211 245° Southwest 475 547 37,200 1,740 Climbing Denver Center
14:51 37.5814 -107.6608 244° Southwest 469 540 38,600 1,500 Climbing Denver Center
14:52 37.5194 -107.8256 245° Southwest 468 539 40,300 1,380 Climbing Denver Center
14:53 37.4656 -107.9656 244° Southwest 462 532 41,500 1,200 Climbing Denver Center
14:54 37.4028 -108.1272 244° Southwest 462 532 42,800 720 Climbing Denver Center
14:55 37.3575 -108.2722 249° West 464 534 43,000 60 Climbing Denver Center
14:56 37.3111 -108.4536 252° West 482 555 43,000  Level Denver Center
14:57 37.2683 -108.6086 251° West 488 562 43,000  Level Denver Center
14:58 37.2172 -108.7928 251° West 497 572 43,000  Level Denver Center
14:59 37.1744 -108.9519 251° West 499 574 43,000  Level Denver Center
15:00 37.1219 -109.1386 251° West 507 583 43,000  Level Denver Center
15:01 37.0786 -109.2983 251° West 509 586 43,000  Level Denver Center
15:02 37.0256 -109.4836 250° West 509 586 43,000  Level Denver Center
15:03 36.9783 -109.6464 250° West 516 594 43,000  Level Denver Center
15:04 36.9275 -109.8283 251° West 506 582 43,000  Level Denver Center
15:05 36.8844 -109.9847 251° West 504 580 43,000  Level Denver Center
15:06 36.8344 -110.1589 250° West 504 580 43,000  Level Denver Center
15:08 36.7867 -110.3242 250° West 505 581 43,000  Level Denver Center
15:09 36.7364 -110.4903 249° West 508 585 43,000  Level Denver Center
15:10 36.6872 -110.6564 250° West 508 585 43,000  Level Denver Center
15:11 36.6286 -110.8539 250° West 508 585 43,000  Level Denver Center
15:12 36.5794 -111.0194 250° West 508 585 43,000  Level Denver Center
15:13 36.5306 -111.1853 250° West 508 585 43,000  Level Denver Center
15:14 36.4800 -111.3511 249° West 509 586 43,000  Level Denver Center
15:15 36.4294 -111.5164 249° West 510 587 43,000  Level Denver Center
15:16 36.3792 -111.6800 249° West 510 587 43,000  Level Denver Center
15:17 36.3200 -111.8753 249° West 507 583 43,000  Level Los Angeles Center
15:18 36.2703 -112.0397 249° West 507 583 43,000  Level Los Angeles Center
15:19 36.2189 -112.2047 249° West 508 585 43,000  Level Los Angeles Center
15:20 36.1664 -112.3694 248° West 510 587 43,000  Level Los Angeles Center
15:21 36.1153 -112.5322 249° West 510 587 43,000  Level Los Angeles Center
15:22 36.0533 -112.7292 249° West 510 587 43,000  Level Los Angeles Center
15:23 36.0022 -112.8936 249° West 510 587 43,000  Level Los Angeles Center
15:24 35.9536 -113.0464 249° West 511 588 43,000  Level Los Angeles Center
15:25 35.9028 -113.2069 249° West 510 587 43,000  Level Los Angeles Center
15:26 35.8406 -113.3983 248° West 509 586 43,000  Level Los Angeles Center
15:27 35.7892 -113.5569 248° West 503 579 43,000  Level Los Angeles Center
15:28 35.7411 -113.7044 248° West 504 580 43,000  Level Los Angeles Center
15:29 35.6858 -113.8750 248° West 504 580 43,000  Level Los Angeles Center
15:30 35.6322 -114.0339 247° West 504 580 43,000  Level Los Angeles Center
15:31 35.5694 -114.2247 248° West 504 580 43,000  Level Los Angeles Center
15:32 35.5178 -114.3756 247° West 502 578 43,000  Level Los Angeles Center
15:33 35.4656 -114.5342 248° West 502 578 43,000  Level Los Angeles Center
15:35 35.4108 -114.6947 247° West 504 580 43,000  Level Los Angeles Center
15:36 35.3456 -114.8864 247° West 505 581 43,000  Level Los Angeles Center
15:37 35.2906 -115.0461 247° West 505 581 43,000 -300 Level Los Angeles Center
15:38 35.2453 -115.2114 251° West 509 586 42,400 -600 Descending Los Angeles Center
15:39 35.2086 -115.3789 255° West 509 586 41,800 -600 Descending Los Angeles Center
15:40 35.1661 -115.5664 255° West 517 595 41,200 -660 Descending Los Angeles Center
15:41 35.1267 -115.7361 254° West 520 598 40,500 -600 Descending Los Angeles Center
15:42 35.0881 -115.9056 254° West 519 597 40,000 -240 Descending Los Angeles Center
15:43 35.0472 -116.0775 254° West 525 604 40,000  Level Los Angeles Center
15:44 35.0078 -116.2478 254° West 525 604 40,000  Level Los Angeles Center
15:45 34.9689 -116.4181 254° West 523 602 40,000 -480 Level Los Angeles Center
15:46 34.9203 -116.6208 254° West 522 601 39,100 -1,020 Descending Los Angeles Center
15:47 34.8794 -116.7911 254° West 522 601 38,000 -540 Descending Los Angeles Center
15:48 34.8372 -116.9625 253° West 524 603 38,000 -720 Level Los Angeles Center
15:49 34.7956 -117.1339 254° West 526 605 36,500 -1,680 Descending Los Angeles Center
15:50 34.7528 -117.3069 253° West 528 608 34,500 -2,040 Descending Los Angeles Center
15:51 34.7097 -117.4819 253° West 534 615 32,400 -1,260 Descending Los Angeles Center
15:52 34.6656 -117.6572 253° West 535 616 32,000 -780 Descending Los Angeles Center
15:53 34.6167 -117.8583 254° West 520 598 30,900 -2,040 Descending Los Angeles Center
15:54 34.5711 -118.0347 253° West 547 629 27,900 -2,880 Descending Los Angeles Center
15:55 34.5303 -118.2003 253° West 539 620 25,000 -1,920 Descending Los Angeles Center
15:56 34.4836 -118.3917 254° West 523 602 24,000 -480 Descending Los Angeles Center
15:57 34.4417 -118.5500 252° West 505 581 24,000  Level Los Angeles Center
15:58 34.4003 -118.7086 252° West 500 575 24,000 -480 Level Los Angeles Center
15:59 34.3622 -118.8661 254° West 492 566 23,100 -1,440 Descending Los Angeles Center
16:00 34.3453 -119.0375 263° West 515 593 21,100 -2,400 Descending Los Angeles Center
16:01 34.3339 -119.2006 265° West 482 555 18,600 -3,060 Descending Los Angeles Center
16:01 34.3306 -119.2275 261° West 473 544 17,900 -4,020 Descending Los Angeles Center
16:02 34.3222 -119.3569 266° West 389 448 13,800 -3,720 Descending Los Angeles Center
16:04 34.2881 -119.4683 250° West 354 407 10,300 -3,300 Descending Los Angeles Center
16:05 34.2514 -119.5717 247° West 303 349 7,100 -2,880 Descending Los Angeles Center
16:06 34.2753 -119.6500 290° West 270 311 4,500 -2,220 Descending Los Angeles Center
16:07 34.3283 -119.7083 318° Northwest 254 292 2,500 -1,320 Descending Los Angeles Center
16:08 34.3706 -119.7442 325° Northwest 212 244 1,800 -540 Descending Los Angeles Center
16:09 34.3981 -119.7747 317° Northwest 165 190 1,400 -600 Descending Los Angeles Center
16:10 34.4269 -119.8064 318° Northwest 143 165 700 -720 Descending Los Angeles Center
16:10 34.4297 -119.8044 30° Northeast 149 171 700 -360 Level Los Angeles Center
16:11 34.4461 -119.8492 294° West 141 162 300 -420 Descending Los Angeles Center
16:13 34.4262 -119.8415 180° South  Level Estimated